Precipitable_Water
0.29 0.28 0.27 0.28 0.28 0.27 0.27 0.26 0.23 0.20 0.21 0.23 0.23 0.26 0.26 0.27 0.28 0.30 0.32 0.32 0.34 0.35 0.36 0.36 0.37 0.39 0.41 0.42 0.43 0.44 0.44 0.43 0.42 0.42 0.43 0.41 0.43 0.44
0.29 0.28 0.29 0.29 0.29 0.28 0.28 0.27 0.25 0.24 0.23 0.26 0.27 0.28 0.30 0.31 0.32 0.33 0.35 0.36 0.36 0.37 0.37 0.39 0.39 0.40 0.41 0.41 0.40 0.40 0.40 0.39 0.40 0.40 0.40 0.41 0.42 0.43
0.30 0.31 0.32 0.34 0.33 0.30 0.29 0.28 0.28 0.27 0.26 0.28 0.30 0.33 0.33 0.33 0.34 0.37 0.38 0.37 0.36 0.36 0.37 0.38 0.38 0.38 0.38 0.38 0.38 0.37 0.36 0.35 0.37 0.36 0.36 0.35 0.36 0.38
0.31 0.31 0.32 0.34 0.32 0.32 0.31 0.30 0.30 0.30 0.30 0.30 0.34 0.33 0.32 0.34 0.37 0.37 0.36 0.35 0.34 0.34 0.34 0.35 0.35 0.35 0.35 0.35 0.35 0.33 0.34 0.35 0.35 0.35 0.33 0.31 0.30 0.31
0.33 0.32 0.33 0.33 0.32 0.32 0.32 0.31 0.31 0.32 0.33 0.33 0.32 0.33 0.34 0.37 0.36 0.35 0.34 0.34 0.34 0.33 0.34 0.34 0.33 0.32 0.33 0.33 0.33 0.33 0.33 0.33 0.35 0.35 0.32 0.30 0.28 0.28
0.37 0.37 0.36 0.35 0.34 0.34 0.34 0.33 0.34 0.34 0.36 0.37 0.38 0.36 0.35 0.34 0.34 0.33 0.32 0.33 0.33 0.33 0.33 0.32 0.32 0.32 0.32 0.32 0.32 0.31 0.31 0.31 0.31 0.30 0.28 0.27 0.27 0.28
0.39 0.39 0.38 0.37 0.35 0.35 0.36 0.38 0.36 0.36 0.36 0.35 0.35 0.35 0.35 0.34 0.33 0.34 0.34 0.34 0.34 0.33 0.32 0.32 0.31 0.30 0.30 0.30 0.29 0.28 0.28 0.26 0.26 0.26 0.27 0.28 0.28 0.29
0.39 0.39 0.39 0.40 0.40 0.40 0.40 0.38 0.37 0.35 0.37 0.36 0.36 0.35 0.36 0.37 0.36 0.35 0.35 0.33 0.31 0.34 0.32 0.30 0.31 0.29 0.28 0.28 0.27 0.26 0.26 0.26 0.26 0.27 0.27 0.27 0.27 0.27
0.37 0.37 0.37 0.37 0.38 0.37 0.39 0.41 0.42 0.43 0.42 0.40 0.38 0.38 0.37 0.37 0.36 0.35 0.34 0.33 0.32 0.33 0.31 0.28 0.29 0.26 0.26 0.24 0.25 0.25 0.25 0.26 0.26 0.26 0.27 0.27 0.27 0.28
0.37 0.37 0.37 0.38 0.38 0.38 0.38 0.37 0.38 0.38 0.38 0.38 0.39 0.38 0.38 0.37 0.35 0.34 0.33 0.33 0.33 0.31 0.30 0.25 0.27 0.24 0.25 0.25 0.27 0.27 0.27 0.27 0.27 0.26 0.26 0.26 0.26 0.26
0.34 0.35 0.35 0.35 0.36 0.36 0.35 0.34 0.34 0.34 0.35 0.36 0.37 0.36 0.35 0.34 0.35 0.34 0.32 0.30 0.28 0.29 0.31 0.28 0.26 0.26 0.26 0.26 0.26 0.26 0.26 0.25 0.25 0.25 0.25 0.25 0.25 0.25
0.30 0.30 0.31 0.32 0.32 0.33 0.33 0.32 0.31 0.32 0.33 0.33 0.32 0.33 0.35 0.35 0.36 0.36 0.34 0.30 0.29 0.27 0.29 0.26 0.26 0.26 0.23 0.25 0.24 0.23 0.22 0.22 0.22 0.22 0.23 0.23 0.23 0.23
0.26 0.27 0.28 0.29 0.30 0.32 0.33 0.32 0.31 0.32 0.31 0.31 0.31 0.31 0.31 0.31 0.30 0.30 0.30 0.30 0.29 0.27 0.28 0.27 0.26 0.24 0.23 0.21 0.22 0.22 0.22 0.21 0.21 0.20 0.21 0.21 0.21 0.22
0.24 0.25 0.26 0.27 0.27 0.28 0.29 0.30 0.31 0.31 0.31 0.31 0.30 0.28 0.29 0.29 0.30 0.29 0.29 0.27 0.26 0.24 0.24 0.24 0.23 0.22 0.21 0.20 0.19 0.20 0.20 0.20 0.20 0.18 0.18 0.18 0.21 0.21
0.23 0.24 0.25 0.25 0.25 0.25 0.27 0.28 0.29 0.28 0.27 0.27 0.26 0.27 0.29 0.29 0.30 0.29 0.29 0.28 0.27 0.27 0.26 0.25 0.24 0.23 0.23 0.20 0.19 0.19 0.18 0.18 0.18 0.19 0.20 0.19 0.17 0.17
0.18 0.19 0.20 0.21 0.21 0.22 0.22 0.23 0.25 0.25 0.25 0.25 0.25 0.26 0.28 0.28 0.27 0.27 0.25 0.25 0.23 0.23 0.24 0.24 0.23 0.22 0.21 0.21 0.20 0.18 0.17 0.16 0.18 0.20 0.19 0.18 0.16 0.15
0.12 0.12 0.12 0.12 0.12 0.13 0.14 0.14 0.16 0.17 0.18 0.20 0.20 0.20 0.22 0.22 0.21 0.23 0.24 0.22 0.20 0.20 0.19 0.21 0.22 0.22 0.21 0.19 0.16 0.16 0.16 0.17 0.17 0.17 0.16 0.15 0.15 0.14
0.15 0.13 0.12 0.12 0.12 0.12 0.12 0.13 0.13 0.13 0.13 0.14 0.15 0.16 0.17 0.17 0.18 0.20 0.20 0.19 0.18 0.19 0.18 0.18 0.18 0.17 0.17 0.17 0.17 0.15 0.15 0.15 0.15 0.15 0.14 0.13 0.12 0.12
0.15 0.15 0.14 0.14 0.14 0.14 0.13 0.13 0.13 0.14 0.14 0.14 0.13 0.14 0.14 0.15 0.15 0.15 0.16 0.16 0.16 0.15 0.16 0.16 0.15 0.13 0.12 0.11 0.12 0.16 0.14 0.13 0.13 0.12 0.12 0.12 0.11 0.10
0.13 0.13 0.12 0.12 0.12 0.12 0.12 0.13 0.13 0.13 0.13 0.12 0.13 0.13 0.13 0.13 0.13 0.14 0.14 0.14 0.14 0.14 0.13 0.14 0.14 0.14 0.13 0.11 0.11 0.13 0.15 0.13 0.12 0.11 0.10 0.11 0.11 0.11
0.11 0.11 0.11 0.11 0.10 0.10 0.10 0.11 0.11 0.11 0.12 0.12 0.12 0.12 0.13 0.13 0.12 0.12 0.12 0.12 0.12 0.12 0.12 0.12 0.13 0.15 0.16 0.15 0.11 0.11 0.11 0.13 0.12 0.10 0.10 0.10 0.10 0.10
0.08 0.09 0.09 0.09 0.08 0.08 0.08 0.08 0.09 0.09 0.10 0.11 0.12 0.13 0.13 0.12 0.12 0.12 0.12 0.12 0.12 0.12 0.12 0.13 0.14 0.14 0.12 0.11 0.10 0.09 0.09 0.08 0.09 0.11 0.13 0.13 0.12 0.11
0.09 0.09 0.08 0.08 0.08 0.08 0.08 0.08 0.08 0.08 0.08 0.09 0.09 0.11 0.11 0.11 0.12 0.12 0.12 0.12 0.11 0.11 0.11 0.11 0.11 0.12 0.11 0.10 0.09 0.08 0.08 0.08 0.10 0.11 0.12 0.14 0.15 0.16
Wind_Speed
41 41 40 39 38 38 38 38 37 37 37 38 36 37 36 36 36 36 37 37 37 38 38 38 38 38 38 38 38 38 38 39 38 38 38 38 38 38
42 42 41 40 40 39 39 38 38 37 37 37 38 38 38 39 39 39 39 40 41 41 41 40 40 40 40 40 40 40 40 40 40 39 39 39 40 40
43 43 42 42 41 41 40 39 39 38 38 38 39 41 42 42 42 42 43 44 43 42 41 41 41 41 41 41 41 42 42 42 42 41 41 42 43 43
44 44 43 43 42 42 42 41 41 40 41 42 43 43 44 45 45 45 44 43 42 42 42 42 42 43 43 43 43 43 44 43 44 44 44 45 46 46
45 45 44 44 44 44 43 43 43 43 44 44 44 44 44 45 46 45 44 44 44 44 44 44 45 45 45 46 46 46 46 46 46 46 47 47 48 48
47 47 47 47 47 47 46 46 46 46 46 46 46 46 45 45 45 45 45 45 45 45 46 46 47 47 47 47 47 47 47 48 48 49 50 50 50 50
52 51 51 51 50 50 50 50 50 49 47 47 47 47 47 47 47 47 47 47 47 48 48 48 47 47 47 47 47 48 48 49 50 51 51 52 52 53
54 54 54 54 54 54 53 52 51 50 50 50 50 50 50 50 49 49 49 48 48 48 48 48 48 48 49 49 50 50 51 52 52 53 54 55 56 56
53 54 54 55 55 54 55 55 55 55 54 53 54 53 52 52 51 51 51 52 52 51 51 51 51 52 52 52 52 52 53 54 55 56 57 57 58 59
54 54 55 55 55 55 55 56 56 57 57 57 56 55 55 54 53 53 53 54 54 53 54 54 52 53 53 53 54 55 55 56 58 59 60 61 62 63
52 53 54 54 55 55 56 56 57 57 57 58 59 58 58 57 56 55 55 55 56 55 54 55 54 55 55 55 56 57 58 59 61 62 62 63 64 65
53 54 56 56 56 56 57 57 58 57 57 57 57 58 59 59 59 59 58 58 58 56 55 57 57 56 57 58 59 59 59 59 60 62 63 65 66 67
51 52 52 53 55 56 57 57 57 57 58 58 58 58 58 59 59 59 60 60 60 60 58 59 60 60 61 62 62 63 64 64 64 64 65 65 66 67
53 53 53 54 54 55 56 57 57 57 57 57 58 59 59 59 59 59 60 61 62 63 62 62 63 62 63 64 65 65 64 64 65 66 68 68 66 66
54 55 55 55 56 56 58 58 58 57 58 58 59 59 58 59 60 61 61 61 62 63 63 63 64 65 66 67 67 65 65 66 68 67 65 65 67 67
55 55 55 56 57 57 57 57 56 56 56 57 58 58 56 57 59 60 60 60 61 62 64 65 65 66 66 65 65 66 66 67 65 65 66 67 69 69
51 52 52 52 53 53 53 54 56 57 57 57 58 58 57 57 61 59 59 59 60 61 61 61 61 61 62 64 66 66 67 66 65 65 66 68 68 68
51 52 51 51 51 51 52 52 51 52 52 54 57 58 58 57 57 56 59 59 58 58 57 57 58 59 62 65 65 65 64 64 64 63 63 64 66 63
51 51 48 48 49 49 49 51 52 52 53 53 53 52 54 56 56 57 58 57 58 59 60 60 60 60 61 62 60 58 59 58 57 58 58 59 60 57
47 48 48 49 50 50 51 51 50 50 50 51 52 53 52 53 53 53 54 56 57 58 58 58 57 56 54 55 55 54 52 52 52 54 54 53 54 54
46 47 49 49 50 51 51 51 51 52 52 51 50 49 50 50 50 49 49 50 49 49 49 48 47 48 47 47 48 47 47 48 50 49 48 47 46 46
43 45 46 47 48 48 49 49 50 49 48 48 48 47 46 46 45 45 44 43 43 42 42 39 39 40 42 43 43 44 43 41 41 42 42 43 42 42
36 37 39 40 40 41 42 42 42 43 43 43 43 43 42 41 40 39 38 37 37 36 36 36 37 37 38 38 38 36 36 35 34 36 37 39 41 44
Wind_Direction
239 241 242 244 245 246 246 245 246 247 248 247 249 249 250 253 257 260 262 264 266 267 268 268 269 270 271 271 272 272 273 273 273 273 273 274 273 273
240 241 242 244 245 246 246 246 248 249 249 250 250 250 252 255 259 262 264 266 266 268 268 267 269 270 271 271 272 272 273 273 273 272 273 273 273 273
240 241 243 245 245 246 246 246 247 249 250 252 253 254 256 259 262 264 266 267 266 266 266 267 268 270 270 271 271 272 273 272 272 272 273 273 274 273
241 242 244 246 245 246 246 247 249 251 254 255 257 257 259 260 263 266 266 265 265 264 265 267 268 270 271 271 272 272 272 272 271 272 273 274 274 274
243 244 246 246 246 247 248 249 251 255 257 257 258 258 260 262 264 264 265 265 264 265 266 267 269 270 271 271 271 271 272 271 272 272 272 273 274 274
245 247 248 248 248 248 249 251 254 256 257 258 259 260 261 261 262 264 264 264 264 265 266 268 269 270 271 271 271 271 271 271 272 272 273 273 273 273
248 248 249 249 249 250 251 254 254 255 257 258 259 260 260 260 261 263 263 264 264 265 267 269 269 270 271 271 271 271 271 272 272 273 274 274 274 274
248 249 250 250 250 251 252 253 253 255 257 258 259 259 260 260 261 262 262 262 264 265 266 268 268 270 271 271 271 272 272 273 273 274 274 275 275 275
249 249 249 250 250 251 252 253 254 255 256 258 259 259 260 261 261 261 261 262 263 264 266 267 269 270 271 271 271 272 273 274 274 274 275 275 275 276
250 249 250 251 251 252 253 254 255 256 257 258 258 259 260 260 261 261 261 262 263 264 266 268 269 269 270 271 272 273 273 274 275 275 275 276 276 276
250 250 251 252 252 253 254 254 256 257 257 258 259 259 259 260 261 262 261 262 263 264 265 267 268 270 271 271 272 273 274 275 276 276 276 276 277 277
252 252 252 253 253 253 254 255 256 257 258 259 259 258 259 260 260 260 261 261 263 265 266 267 268 270 271 272 273 274 275 276 276 277 277 277 277 277
253 254 253 253 254 254 254 255 257 258 258 259 259 259 259 260 260 261 261 261 262 264 266 267 268 270 271 273 274 275 276 277 277 277 277 277 278 277
254 255 255 255 255 256 256 257 258 259 259 259 259 259 259 260 260 261 262 262 263 265 266 267 269 270 272 273 275 276 276 277 278 278 279 278 277 276
256 256 256 257 257 257 258 258 259 258 259 259 259 260 261 261 261 262 262 263 264 265 266 267 268 270 272 274 275 276 277 278 279 278 278 277 278 278
257 257 257 258 258 258 259 258 258 259 259 259 260 261 262 263 262 262 263 263 265 266 266 268 269 270 271 272 274 276 277 278 278 277 278 278 278 278
256 256 257 257 258 258 259 259 258 259 259 261 262 262 263 263 263 264 264 264 265 267 268 268 268 269 271 273 274 276 277 277 277 278 278 279 279 279
256 256 256 256 256 257 259 259 260 261 261 261 261 261 263 263 264 265 263 264 266 268 267 267 270 272 273 273 274 276 276 277 277 278 278 280 280 280
255 255 256 255 255 257 259 259 260 261 261 261 262 263 263 263 263 263 264 266 267 267 268 270 271 272 274 275 275 274 276 277 278 278 279 279 280 280
253 254 255 256 257 258 259 259 260 261 262 263 263 263 263 264 265 265 265 266 267 268 269 270 271 272 272 274 276 275 275 277 278 279 279 279 279 281
254 255 257 257 258 259 260 260 261 261 261 262 263 263 263 263 264 264 266 267 268 268 269 269 270 271 273 274 275 276 276 277 278 278 279 280 281 281
257 257 258 258 259 259 260 260 260 260 260 261 261 261 261 262 263 264 264 265 266 267 268 268 269 271 272 274 276 278 279 279 278 278 278 278 280 280
258 258 258 258 258 258 259 259 259 259 258 258 258 259 259 260 260 261 263 263 264 265 266 268 270 272 273 275 276 278 279 280 280 281 282 282 282 282